Time,TemperatureF,DewpointF,PressureIn,WindDirection,WindDirectionDegrees,WindSpeedMPH,WindSpeedGustMPH,Humidity,HourlyPrecipIn,Conditions,Clouds,dailyrainin,SoftwareType,DateUTC
2013-01-04 00:01:00,58.4,58.4,30.17,North,1,3.2,7.5,100,0.07,,---,0.00,VWS V14.01,2013-01-04 05:01:00,
2013-01-04 00:02:00,58.4,58.4,30.17,North,0,3.7,6.3,100,0.06,,---,0.00,VWS V14.01,2013-01-04 05:02:00,
2013-01-04 00:07:00,58.9,58.9,30.18,NNW,345,7.6,9.8,100,0.06,,---,0.01,VWS V14.01,2013-01-04 05:07:00,
2013-01-04 00:12:00,58.5,58.5,30.17,NNW,347,5.2,5.7,100,0.05,,---,0.01,VWS V14.01,2013-01-04 05:12:00,
2013-01-04 00:17:00,58.2,58.2,30.18,North,4,4.6,4.6,100,0.05,,---,0.02,VWS V14.01,2013-01-04 05:17:00,
2013-01-04 00:22:00,58.3,58.3,30.18,NW,326,9.0,9.8,100,0.06,,---,0.03,VWS V14.01,2013-01-04 05:22:00,
2013-01-04 00:27:00,58.4,58.4,30.18,NNW,343,11.3,11.9,100,0.06,,---,0.04,VWS V14.01,2013-01-04 05:27:00,
2013-01-04 00:32:00,58.1,58.1,30.18,NNW,332,8.5,9.1,100,0.06,,---,0.04,VWS V14.01,2013-01-04 05:32:00,
2013-01-04 00:37:00,58.2,58.2,30.17,NNE,27,3.5,3.5,100,0.06,,---,0.05,VWS V14.01,2013-01-04 05:37:00,
2013-01-04 00:42:00,58.2,58.2,30.16,NNE,15,5.2,5.7,100,0.06,,---,0.05,VWS V14.01,2013-01-04 05:42:00,
2013-01-04 00:47:00,57.7,57.7,30.16,North,0,5.2,5.8,100,0.05,,---,0.05,VWS V14.01,2013-01-04 05:47:00,
2013-01-04 00:52:00,58.1,58.1,30.16,North,10,10.3,10.9,100,0.05,,---,0.05,VWS V14.01,2013-01-04 05:52:00,
2013-01-04 00:57:00,58.2,58.2,30.16,North,1,7.1,7.8,100,0.05,,---,0.05,VWS V14.01,2013-01-04 05:57:00,
2013-01-04 01:02:00,58.3,58.3,30.16,NNE,31,3.0,3.0,100,0.06,,---,0.06,VWS V14.01,2013-01-04 06:02:00,
2013-01-04 01:07:00,58.3,58.3,30.16,NNE,18,5.5,5.5,100,0.05,,---,0.06,VWS V14.01,2013-01-04 06:07:00,
2013-01-04 01:12:00,58.1,58.1,30.16,NNE,13,3.5,8.3,100,0.05,,---,0.06,VWS V14.01,2013-01-04 06:12:00,
2013-01-04 01:17:00,57.9,57.9,30.17,North,8,3.7,8.1,100,0.04,,---,0.06,VWS V14.01,2013-01-04 06:17:00,
2013-01-04 01:22:00,58.0,58.0,30.17,NW,325,10.7,13.3,100,0.04,,---,0.06,VWS V14.01,2013-01-04 06:22:00,
2013-01-04 01:27:00,57.5,57.5,30.17,North,1,4.0,10.3,100,0.03,,---,0.06,VWS V14.01,2013-01-04 06:27:00,
2013-01-04 01:32:00,57.2,57.2,30.17,NNE,28,6.5,11.2,100,0.02,,---,0.06,VWS V14.01,2013-01-04 06:32:00,
2013-01-04 01:37:00,57.1,57.1,30.17,NNE,13,7.9,8.0,100,0.01,,---,0.06,VWS V14.01,2013-01-04 06:37:00,
2013-01-04 01:42:00,57.8,57.8,30.17,North,8,4.3,4.7,100,0.01,,---,0.06,VWS V14.01,2013-01-04 06:42:00,
2013-01-04 01:47:00,57.3,57.3,30.17,NNE,15,5.3,5.5,100,0.01,,---,0.06,VWS V14.01,2013-01-04 06:47:00,
2013-01-04 01:52:00,57.1,57.1,30.17,NNE,28,4.3,4.3,100,0.02,,---,0.07,VWS V14.01,2013-01-04 06:52:00,
2013-01-04 01:57:00,57.3,57.3,30.17,NNW,342,6.1,7.1,100,0.02,,---,0.07,VWS V14.01,2013-01-04 06:57:00,
2013-01-04 02:02:00,57.0,57.0,30.17,North,11,2.6,2.6,100,0.01,,---,0.07,VWS V14.01,2013-01-04 07:02:00,
2013-01-04 02:07:00,56.8,56.8,30.18,North,7,5.1,7.8,100,0.01,,---,0.07,VWS V14.01,2013-01-04 07:07:00,
2013-01-04 02:12:00,56.2,56.2,30.17,NNW,346,7.5,8.4,100,0.02,,---,0.08,VWS V14.01,2013-01-04 07:12:00,
2013-01-04 02:17:00,56.3,56.3,30.17,North,11,5.5,5.8,100,0.02,,---,0.08,VWS V14.01,2013-01-04 07:17:00,
2013-01-04 02:22:00,56.1,56.1,30.18,North,4,6.7,6.8,100,0.02,,---,0.08,VWS V14.01,2013-01-04 07:22:00,
2013-01-04 02:27:00,55.7,55.7,30.18,North,352,6.2,9.9,100,0.02,,---,0.08,VWS V14.01,2013-01-04 07:27:00,
2013-01-04 02:32:00,55.6,55.6,30.18,NE,39,7.8,11.7,100,0.02,,---,0.08,VWS V14.01,2013-01-04 07:32:00,
2013-01-04 02:37:00,55.7,55.7,30.18,North,3,7.8,9.7,100,0.02,,---,0.08,VWS V14.01,2013-01-04 07:37:00,
2013-01-04 02:42:00,55.6,55.6,30.18,NNE,28,6.6,8.2,100,0.02,,---,0.08,VWS V14.01,2013-01-04 07:42:00,
2013-01-04 02:47:00,55.0,55.0,30.18,North,1,2.6,6.6,100,0.03,,---,0.09,VWS V14.01,2013-01-04 07:47:00,
2013-01-04 02:52:00,54.6,54.6,30.18,NNE,13,3.7,7.6,100,0.04,,---,0.10,VWS V14.01,2013-01-04 07:52:00,
2013-01-04 02:57:00,55.4,55.4,30.18,NNE,22,4.1,9.5,100,0.03,,---,0.10,VWS V14.01,2013-01-04 07:57:00,
2013-01-04 03:02:00,55.0,55.0,30.18,NNE,20,5.5,9.4,100,0.03,,---,0.10,VWS V14.01,2013-01-04 08:02:00,
2013-01-04 03:07:00,55.0,55.0,30.18,NE,41,4.2,6.2,100,0.03,,---,0.10,VWS V14.01,2013-01-04 08:07:00,
2013-01-04 03:12:00,55.3,55.3,30.18,NNE,27,0.0,5.8,100,0.03,,---,0.10,VWS V14.01,2013-01-04 08:12:00,
2013-01-04 03:17:00,55.1,55.1,30.18,NE,51,1.0,6.9,100,0.03,,---,0.11,VWS V14.01,2013-01-04 08:17:00,
2013-01-04 03:22:00,55.4,55.4,30.18,NNE,14,4.8,6.1,100,0.03,,---,0.11,VWS V14.01,2013-01-04 08:22:00,
2013-01-04 03:27:00,55.1,55.1,30.17,NNE,22,1.6,5.6,100,0.03,,---,0.11,VWS V14.01,2013-01-04 08:27:00,
2013-01-04 03:32:00,55.4,55.4,30.17,NNE,13,9.6,10.2,100,0.03,,---,0.11,VWS V14.01,2013-01-04 08:32:00,
2013-01-04 03:37:00,55.6,55.6,30.18,NNE,17,1.0,7.2,100,0.03,,---,0.11,VWS V14.01,2013-01-04 08:37:00,
2013-01-04 03:42:00,55.4,55.4,30.17,North,11,2.9,5.5,100,0.03,,---,0.11,VWS V14.01,2013-01-04 08:42:00,
2013-01-04 03:47:00,55.5,55.5,30.17,NNE,14,3.8,6.3,100,0.03,,---,0.12,VWS V14.01,2013-01-04 08:47:00,
2013-01-04 03:52:00,55.5,55.5,30.17,NE,39,6.3,9.8,100,0.03,,---,0.12,VWS V14.01,2013-01-04 08:52:00,
2013-01-04 03:57:00,55.5,55.5,30.17,NNW,338,8.2,8.2,100,0.02,,---,0.12,VWS V14.01,2013-01-04 08:57:00,
2013-01-04 04:02:00,55.5,55.5,30.17,NNE,13,2.4,6.4,100,0.02,,---,0.12,VWS V14.01,2013-01-04 09:02:00,
2013-01-04 04:07:00,55.2,55.2,30.17,NNE,22,3.7,8.4,100,0.02,,---,0.12,VWS V14.01,2013-01-04 09:07:00,
2013-01-04 04:12:00,55.6,55.6,30.17,NNW,332,4.3,6.3,100,0.02,,---,0.12,VWS V14.01,2013-01-04 09:12:00,
2013-01-04 04:17:00,54.6,54.6,30.18,NNW,343,1.6,5.7,100,0.01,,---,0.12,VWS V14.01,2013-01-04 09:17:00,
2013-01-04 04:22:00,55.4,55.4,30.18,NNE,13,3.0,4.8,100,0.01,,---,0.12,VWS V14.01,2013-01-04 09:22:00,
2013-01-04 04:27:00,55.3,55.3,30.17,NNE,30,3.2,4.8,100,0.01,,---,0.12,VWS V14.01,2013-01-04 09:27:00,
2013-01-04 04:32:00,55.7,55.7,30.17,NNE,30,2.5,7.5,100,0.01,,---,0.12,VWS V14.01,2013-01-04 09:32:00,
2013-01-04 04:37:00,55.4,55.4,30.17,NNE,27,0.8,3.5,100,0.01,,---,0.12,VWS V14.01,2013-01-04 09:37:00,
2013-01-04 04:42:00,55.9,55.9,30.18,NE,34,3.3,6.4,100,0.01,,---,0.12,VWS V14.01,2013-01-04 09:42:00,
2013-01-04 04:47:00,55.4,55.4,30.18,North,353,2.3,4.2,100,0.01,,---,0.13,VWS V14.01,2013-01-04 09:47:00,
2013-01-04 04:52:00,55.8,55.8,30.18,North,3,4.5,8.2,100,0.01,,---,0.13,VWS V14.01,2013-01-04 09:52:00,
2013-01-04 04:57:00,55.9,55.9,30.18,NNE,18,7.5,8.8,100,0.02,,---,0.14,VWS V14.01,2013-01-04 09:57:00,
2013-01-04 05:02:00,55.5,55.5,30.18,NNW,340,4.2,6.3,100,0.02,,---,0.14,VWS V14.01,2013-01-04 10:02:00,
2013-01-04 05:07:00,55.8,55.8,30.18,NNE,20,2.7,2.7,100,0.02,,---,0.14,VWS V14.01,2013-01-04 10:07:00,
2013-01-04 05:12:00,55.5,55.5,30.18,NW,323,4.8,7.9,100,0.02,,---,0.14,VWS V14.01,2013-01-04 10:12:00,
2013-01-04 05:17:00,55.0,55.0,30.18,NNE,21,0.8,5.3,100,0.03,,---,0.15,VWS V14.01,2013-01-04 10:17:00,
2013-01-04 05:22:00,55.6,55.6,30.18,North,4,3.4,7.9,100,0.03,,---,0.15,VWS V14.01,2013-01-04 10:22:00,
2013-01-04 05:27:00,55.3,55.3,30.18,North,1,3.4,7.6,100,0.03,,---,0.15,VWS V14.01,2013-01-04 10:27:00,
2013-01-04 05:32:00,55.2,55.2,30.18,NNW,339,7.5,10.4,100,0.04,,---,0.16,VWS V14.01,2013-01-04 10:32:00,
2013-01-04 05:37:00,55.4,55.4,30.19,NNE,18,8.3,14.2,100,0.05,,---,0.17,VWS V14.01,2013-01-04 10:37:00,
2013-01-04 05:42:00,55.5,55.5,30.19,North,350,2.7,8.3,100,0.07,,---,0.19,VWS V14.01,2013-01-04 10:42:00,
2013-01-04 05:47:00,55.3,55.3,30.19,NNW,330,11.4,12.1,100,0.07,,---,0.20,VWS V14.01,2013-01-04 10:47:00,
2013-01-04 05:52:00,55.0,55.0,30.19,NNW,336,7.5,7.5,100,0.08,,---,0.21,VWS V14.01,2013-01-04 10:52:00,
2013-01-04 05:57:00,54.5,54.5,30.19,North,1,3.0,7.5,100,0.08,,---,0.22,VWS V14.01,2013-01-04 10:57:00,
2013-01-04 06:02:00,54.8,54.8,30.20,NNE,22,7.9,11.2,100,0.09,,---,0.23,VWS V14.01,2013-01-04 11:02:00,
2013-01-04 06:07:00,54.3,54.3,30.20,NNE,18,3.2,7.3,100,0.09,,---,0.23,VWS V14.01,2013-01-04 11:07:00,
2013-01-04 06:12:00,54.3,54.3,30.20,NNW,347,3.5,5.8,100,0.10,,---,0.24,VWS V14.01,2013-01-04 11:12:00,
2013-01-04 06:17:00,54.5,54.5,30.20,North,350,6.6,9.8,100,0.09,,---,0.24,VWS V14.01,2013-01-04 11:17:00,
2013-01-04 06:22:00,53.6,53.6,30.20,North,354,5.1,10.7,100,0.09,,---,0.24,VWS V14.01,2013-01-04 11:22:00,
2013-01-04 06:27:00,53.6,53.6,30.20,North,350,8.7,12.6,100,0.10,,---,0.25,VWS V14.01,2013-01-04 11:27:00,
2013-01-04 06:32:00,53.4,53.4,30.20,NNE,18,5.4,9.7,100,0.09,,---,0.25,VWS V14.01,2013-01-04 11:32:00,
2013-01-04 06:37:00,53.6,53.6,30.20,North,8,3.5,8.5,100,0.08,,---,0.25,VWS V14.01,2013-01-04 11:37:00,
2013-01-04 06:42:00,53.6,53.6,30.20,North,3,6.3,10.9,100,0.06,,---,0.25,VWS V14.01,2013-01-04 11:42:00,
2013-01-04 06:47:00,53.7,53.7,30.20,North,6,1.8,5.7,100,0.05,,---,0.25,VWS V14.01,2013-01-04 11:47:00,
2013-01-04 06:52:00,53.6,53.6,30.21,North,352,8.5,9.8,100,0.04,,---,0.25,VWS V14.01,2013-01-04 11:52:00,
2013-01-04 06:57:00,53.3,53.3,30.21,NNE,14,3.9,7.6,100,0.03,,---,0.25,VWS V14.01,2013-01-04 11:57:00,
2013-01-04 07:02:00,53.8,53.8,30.21,NNE,24,4.4,6.2,100,0.02,,---,0.25,VWS V14.01,2013-01-04 12:02:00,
2013-01-04 07:07:00,53.5,53.5,30.21,NNW,340,2.7,7.4,100,0.03,,---,0.26,VWS V14.01,2013-01-04 12:07:00,
2013-01-04 07:12:00,53.5,53.5,30.21,North,11,2.5,5.3,100,0.02,,---,0.26,VWS V14.01,2013-01-04 12:12:00,
2013-01-04 07:17:00,53.5,53.5,30.21,North,8,7.4,7.4,100,0.02,,---,0.26,VWS V14.01,2013-01-04 12:17:00,
2013-01-04 07:22:00,53.2,53.2,30.21,North,8,6.5,6.7,100,0.02,,---,0.26,VWS V14.01,2013-01-04 12:22:00,
2013-01-04 07:27:00,53.9,53.9,30.21,NNE,24,1.7,3.7,100,0.01,,---,0.26,VWS V14.01,2013-01-04 12:27:00,
2013-01-04 07:32:00,54.1,54.1,30.22,North,8,4.5,4.5,100,0.01,,---,0.26,VWS V14.01,2013-01-04 12:32:00,
2013-01-04 07:37:00,54.1,54.1,30.23,NNW,343,6.0,11.6,100,0.01,,---,0.26,VWS V14.01,2013-01-04 12:37:00,
2013-01-04 07:42:00,53.9,53.9,30.23,North,359,3.9,9.6,100,0.01,,---,0.26,VWS V14.01,2013-01-04 12:42:00,
2013-01-04 07:47:00,53.4,53.4,30.23,North,349,7.4,10.4,100,0.01,,---,0.26,VWS V14.01,2013-01-04 12:47:00,
2013-01-04 07:52:00,54.0,54.0,30.23,North,352,4.7,7.9,100,0.01,,---,0.26,VWS V14.01,2013-01-04 12:52:00,
2013-01-04 07:57:00,53.7,53.7,30.23,North,357,4.2,9.6,100,0.01,,---,0.26,VWS V14.01,2013-01-04 12:57:00,
2013-01-04 08:02:00,53.6,53.6,30.23,North,6,1.3,5.5,100,0.01,,---,0.26,VWS V14.01,2013-01-04 13:02:00,
2013-01-04 08:07:00,53.9,53.9,30.23,NNW,335,2.9,5.2,100,0.00,,---,0.26,VWS V14.01,2013-01-04 13:07:00,
2013-01-04 08:12:00,53.9,53.9,30.23,North,359,4.8,5.1,100,0.01,,---,0.27,VWS V14.01,2013-01-04 13:12:00,
2013-01-04 08:17:00,54.0,54.0,30.23,North,10,2.3,3.5,100,0.01,,---,0.27,VWS V14.01,2013-01-04 13:17:00,
2013-01-04 08:22:00,53.9,53.9,30.24,NNW,342,7.7,7.8,100,0.01,,---,0.27,VWS V14.01,2013-01-04 13:22:00,
2013-01-04 08:27:00,54.0,54.0,30.24,North,1,4.8,6.0,100,0.01,,---,0.27,VWS V14.01,2013-01-04 13:27:00,
2013-01-04 08:32:00,53.3,53.3,30.24,NNE,18,4.4,8.8,100,0.01,,---,0.27,VWS V14.01,2013-01-04 13:32:00,
2013-01-04 08:37:00,53.5,53.5,30.24,North,359,4.1,6.5,100,0.01,,---,0.27,VWS V14.01,2013-01-04 13:37:00,
2013-01-04 08:42:00,53.8,53.8,30.24,North,359,2.7,6.8,100,0.01,,---,0.27,VWS V14.01,2013-01-04 13:42:00,
2013-01-04 08:47:00,53.7,53.7,30.24,North,356,4.0,5.6,100,0.01,,---,0.27,VWS V14.01,2013-01-04 13:47:00,
2013-01-04 08:52:00,53.4,53.4,30.24,NNW,333,5.5,6.7,100,0.01,,---,0.27,VWS V14.01,2013-01-04 13:52:00,
2013-01-04 08:57:00,53.8,53.8,30.24,North,359,2.6,7.4,100,0.01,,---,0.27,VWS V14.01,2013-01-04 13:57:00,
2013-01-04 09:02:00,53.8,53.8,30.24,North,8,3.5,4.7,100,0.01,,---,0.27,VWS V14.01,2013-01-04 14:02:00,
2013-01-04 09:07:00,54.1,54.1,30.24,North,352,4.2,8.1,100,0.02,,---,0.28,VWS V14.01,2013-01-04 14:07:00,
2013-01-04 09:12:00,54.4,54.4,30.24,NNE,27,5.0,5.0,100,0.01,,---,0.28,VWS V14.01,2013-01-04 14:12:00,
2013-01-04 09:17:00,53.5,53.5,30.25,North,0,5.1,7.3,100,0.01,,---,0.28,VWS V14.01,2013-01-04 14:17:00,
2013-01-04 09:22:00,54.5,54.5,30.25,North,349,4.7,4.7,100,0.01,,---,0.28,VWS V14.01,2013-01-04 14:22:00,
2013-01-04 09:27:00,54.2,54.2,30.25,NNE,22,2.9,4.9,100,0.01,,---,0.28,VWS V14.01,2013-01-04 14:27:00,
2013-01-04 09:32:00,53.9,53.9,30.25,NNE,22,1.9,7.5,100,0.02,,---,0.29,VWS V14.01,2013-01-04 14:32:00,
2013-01-04 09:37:00,54.9,54.9,30.25,North,1,4.0,4.8,100,0.02,,---,0.29,VWS V14.01,2013-01-04 14:37:00,
2013-01-04 09:42:00,54.1,54.1,30.25,NW,326,2.8,4.8,100,0.03,,---,0.30,VWS V14.01,2013-01-04 14:42:00,
2013-01-04 09:47:00,55.2,55.2,30.25,NNE,15,3.9,7.8,100,0.03,,---,0.30,VWS V14.01,2013-01-04 14:47:00,
2013-01-04 09:52:00,55.3,55.3,30.25,North,1,3.2,4.8,100,0.04,,---,0.31,VWS V14.01,2013-01-04 14:52:00,
2013-01-04 09:57:00,54.8,54.8,30.25,North,354,2.9,6.3,100,0.04,,---,0.31,VWS V14.01,2013-01-04 14:57:00,
2013-01-04 10:02:00,55.0,55.0,30.25,North,359,6.1,8.2,100,0.05,,---,0.32,VWS V14.01,2013-01-04 15:02:00,
2013-01-04 10:07:00,55.7,55.7,30.26,NNW,335,6.2,7.5,100,0.05,,---,0.33,VWS V14.01,2013-01-04 15:07:00,
2013-01-04 10:12:00,55.7,55.7,30.26,North,10,3.0,6.5,100,0.05,,---,0.33,VWS V14.01,2013-01-04 15:12:00,
2013-01-04 10:17:00,55.9,55.9,30.26,NNW,347,3.1,4.5,100,0.05,,---,0.33,VWS V14.01,2013-01-04 15:17:00,
2013-01-04 10:22:00,55.9,55.9,30.26,North,11,1.1,3.3,100,0.06,,---,0.34,VWS V14.01,2013-01-04 15:22:00,
2013-01-04 10:27:00,55.6,55.6,30.25,North,354,3.4,3.5,100,0.06,,---,0.34,VWS V14.01,2013-01-04 15:27:00,
2013-01-04 10:32:00,56.1,56.1,30.25,NNE,22,3.1,3.1,100,0.05,,---,0.34,VWS V14.01,2013-01-04 15:32:00,
2013-01-04 10:37:00,56.7,56.7,30.25,NNW,342,7.3,8.3,100,0.05,,---,0.34,VWS V14.01,2013-01-04 15:37:00,
2013-01-04 10:42:00,55.8,55.8,30.25,North,353,4.3,6.0,100,0.04,,---,0.34,VWS V14.01,2013-01-04 15:42:00,
2013-01-04 10:47:00,56.4,56.4,30.25,NNE,28,2.4,2.9,100,0.05,,---,0.35,VWS V14.01,2013-01-04 15:47:00,
2013-01-04 10:52:00,56.6,56.6,30.25,NNE,22,1.9,5.5,100,0.04,,---,0.35,VWS V14.01,2013-01-04 15:52:00,
2013-01-04 10:57:00,56.2,56.2,30.25,North,359,2.9,4.8,100,0.04,,---,0.35,VWS V14.01,2013-01-04 15:57:00,
2013-01-04 11:02:00,56.9,56.9,30.25,North,8,2.9,3.2,100,0.04,,---,0.36,VWS V14.01,2013-01-04 16:02:00,
2013-01-04 11:07:00,57.1,57.1,30.25,NNW,340,6.0,6.5,100,0.03,,---,0.36,VWS V14.01,2013-01-04 16:07:00,
2013-01-04 11:12:00,57.0,57.0,30.24,NNE,31,2.7,3.2,100,0.03,,---,0.36,VWS V14.01,2013-01-04 16:12:00,
2013-01-04 11:17:00,57.3,57.3,30.24,NNE,32,1.6,3.8,100,0.03,,---,0.36,VWS V14.01,2013-01-04 16:17:00,
2013-01-04 11:22:00,57.7,57.7,30.24,NNE,27,1.3,2.2,100,0.02,,---,0.36,VWS V14.01,2013-01-04 16:22:00,
2013-01-04 11:27:00,57.7,57.7,30.24,North,4,1.9,3.1,100,0.02,,---,0.36,VWS V14.01,2013-01-04 16:27:00,
2013-01-04 11:32:00,57.4,57.4,30.24,North,359,3.9,8.1,100,0.02,,---,0.36,VWS V14.01,2013-01-04 16:32:00,
2013-01-04 11:37:00,57.8,57.8,30.23,North,352,5.0,9.3,100,0.02,,---,0.36,VWS V14.01,2013-01-04 16:37:00,
2013-01-04 11:42:00,56.6,56.6,30.23,North,8,3.4,6.7,100,0.02,,---,0.36,VWS V14.01,2013-01-04 16:42:00,
2013-01-04 11:46:00,57.2,57.2,30.23,North,4,2.8,8.8,100,0.01,,---,0.36,VWS V14.01,2013-01-04 16:46:00,
2013-01-04 11:51:00,57.2,57.2,30.23,NNE,15,2.5,4.7,100,0.01,,---,0.36,VWS V14.01,2013-01-04 16:51:00,
2013-01-04 11:56:00,57.7,57.7,30.23,NNE,22,4.2,4.3,100,0.01,,---,0.36,VWS V14.01,2013-01-04 16:56:00,
2013-01-04 12:01:00,57.8,57.8,30.23,North,10,1.7,1.7,100,0.00,,---,0.36,VWS V14.01,2013-01-04 17:01:00,
2013-01-04 12:06:00,57.9,57.9,30.23,North,353,2.5,5.8,100,0.00,,---,0.36,VWS V14.01,2013-01-04 17:06:00,
2013-01-04 12:11:00,58.0,58.0,30.22,NNE,20,2.9,4.6,100,0.00,,---,0.36,VWS V14.01,2013-01-04 17:11:00,
2013-01-04 12:16:00,58.2,58.2,30.22,North,350,3.0,3.5,100,0.00,,---,0.36,VWS V14.01,2013-01-04 17:16:00,
2013-01-04 12:21:00,57.9,57.9,30.22,North,357,6.5,8.6,100,0.00,,---,0.36,VWS V14.01,2013-01-04 17:21:00,
2013-01-04 12:26:00,57.4,57.4,30.22,NW,323,7.5,9.1,100,0.00,,---,0.36,VWS V14.01,2013-01-04 17:26:00,
2013-01-04 12:31:00,57.6,57.6,30.22,NW,315,6.2,7.3,100,0.00,,---,0.36,VWS V14.01,2013-01-04 17:31:00,
2013-01-04 12:36:00,56.9,56.9,30.22,NNW,329,4.4,5.2,100,0.00,,---,0.36,VWS V14.01,2013-01-04 17:36:00,
2013-01-04 12:41:00,57.7,57.7,30.21,North,11,6.4,8.5,100,0.00,,---,0.36,VWS V14.01,2013-01-04 17:41:00,
2013-01-04 12:46:00,57.9,57.9,30.21,NNE,21,5.3,6.8,100,0.01,,---,0.37,VWS V14.01,2013-01-04 17:46:00,
2013-01-04 12:51:00,57.9,57.9,30.21,North,4,4.3,5.1,100,0.01,,---,0.37,VWS V14.01,2013-01-04 17:51:00,
2013-01-04 12:56:00,58.0,58.0,30.21,North,4,1.9,5.9,100,0.01,,---,0.37,VWS V14.01,2013-01-04 17:56:00,
2013-01-04 13:01:00,57.9,57.9,30.21,North,352,7.1,8.3,100,0.01,,---,0.37,VWS V14.01,2013-01-04 18:01:00,
2013-01-04 13:06:00,57.8,57.8,30.21,NNW,336,8.8,9.8,100,0.01,,---,0.37,VWS V14.01,2013-01-04 18:06:00,
2013-01-04 13:11:00,57.1,57.1,30.20,NNE,14,2.9,7.0,100,0.01,,---,0.37,VWS V14.01,2013-01-04 18:11:00,
2013-01-04 13:16:00,57.8,57.8,30.20,North,1,7.1,7.1,100,0.01,,---,0.37,VWS V14.01,2013-01-04 18:16:00,
2013-01-04 13:21:00,57.8,57.8,30.20,NNW,336,7.6,8.0,100,0.02,,---,0.38,VWS V14.01,2013-01-04 18:21:00,
2013-01-04 13:26:00,57.2,57.2,30.20,North,10,5.3,6.7,100,0.02,,---,0.38,VWS V14.01,2013-01-04 18:26:00,
2013-01-04 13:31:00,57.5,57.5,30.20,North,6,3.5,3.9,100,0.02,,---,0.38,VWS V14.01,2013-01-04 18:31:00,
2013-01-04 13:36:00,57.3,57.3,30.19,North,6,5.7,7.8,100,0.03,,---,0.39,VWS V14.01,2013-01-04 18:36:00,
2013-01-04 13:41:00,57.4,57.4,30.19,NNW,345,6.7,8.9,100,0.03,,---,0.39,VWS V14.01,2013-01-04 18:41:00,
2013-01-04 13:46:00,57.2,57.2,30.19,North,7,3.4,4.8,100,0.02,,---,0.39,VWS V14.01,2013-01-04 18:46:00,
2013-01-04 13:51:00,58.0,58.0,30.19,North,8,3.4,4.5,100,0.02,,---,0.39,VWS V14.01,2013-01-04 18:51:00,
2013-01-04 13:56:00,57.9,57.9,30.19,NNE,15,3.5,5.2,100,0.03,,---,0.40,VWS V14.01,2013-01-04 18:56:00,
2013-01-04 14:01:00,57.8,57.8,30.19,NNW,345,8.2,9.4,100,0.03,,---,0.40,VWS V14.01,2013-01-04 19:01:00,
2013-01-04 14:06:00,57.3,57.3,30.19,North,1,4.8,5.3,100,0.03,,---,0.40,VWS V14.01,2013-01-04 19:06:00,
2013-01-04 14:11:00,58.2,58.2,30.19,NNW,347,2.4,4.2,100,0.03,,---,0.40,VWS V14.01,2013-01-04 19:11:00,
2013-01-04 14:16:00,58.1,58.1,30.19,NNW,339,5.3,6.3,100,0.03,,---,0.40,VWS V14.01,2013-01-04 19:16:00,
2013-01-04 14:21:00,57.7,57.7,30.19,North,0,4.7,6.0,100,0.03,,---,0.41,VWS V14.01,2013-01-04 19:21:00,
2013-01-04 14:26:00,57.7,57.7,30.19,NNW,343,2.1,4.0,100,0.03,,---,0.41,VWS V14.01,2013-01-04 19:26:00,
2013-01-04 14:31:00,58.3,58.3,30.19,North,350,3.5,4.1,100,0.03,,---,0.41,VWS V14.01,2013-01-04 19:31:00,
2013-01-04 14:36:00,58.4,58.4,30.19,North,6,4.6,5.5,100,0.02,,---,0.41,VWS V14.01,2013-01-04 19:36:00,
2013-01-04 14:41:00,58.0,58.0,30.19,North,354,3.7,7.2,100,0.02,,---,0.41,VWS V14.01,2013-01-04 19:41:00,
2013-01-04 14:46:00,58.3,58.3,30.19,North,352,9.3,9.7,100,0.02,,---,0.41,VWS V14.01,2013-01-04 19:46:00,
2013-01-04 14:51:00,57.4,57.4,30.19,NNW,343,5.6,6.3,100,0.02,,---,0.41,VWS V14.01,2013-01-04 19:51:00,
2013-01-04 14:56:00,58.2,58.2,30.19,NNW,343,2.7,5.0,100,0.01,,---,0.41,VWS V14.01,2013-01-04 19:56:00,
2013-01-04 15:01:00,58.0,58.0,30.19,North,350,2.1,3.4,100,0.01,,---,0.41,VWS V14.01,2013-01-04 20:01:00,
2013-01-04 15:06:00,57.6,57.6,30.19,North,8,0.5,4.5,100,0.02,,---,0.42,VWS V14.01,2013-01-04 20:06:00,
2013-01-04 15:11:00,58.1,58.1,30.19,North,352,0.9,3.1,100,0.02,,---,0.42,VWS V14.01,2013-01-04 20:11:00,
2013-01-04 15:16:00,57.7,57.7,30.19,North,0,2.2,4.0,100,0.02,,---,0.42,VWS V14.01,2013-01-04 20:16:00,
2013-01-04 15:21:00,58.2,58.2,30.19,North,354,1.5,2.6,100,0.01,,---,0.42,VWS V14.01,2013-01-04 20:21:00,
2013-01-04 15:26:00,57.8,57.8,30.19,NNW,333,3.3,3.3,100,0.01,,---,0.42,VWS V14.01,2013-01-04 20:26:00,
2013-01-04 15:31:00,58.4,58.4,30.19,North,352,0.9,1.6,100,0.01,,---,0.42,VWS V14.01,2013-01-04 20:31:00,
2013-01-04 15:36:00,58.6,58.6,30.19,North,352,5.8,5.8,100,0.01,,---,0.42,VWS V14.01,2013-01-04 20:36:00,
2013-01-04 15:41:00,58.3,58.3,30.20,NNW,346,3.1,4.3,100,0.01,,---,0.42,VWS V14.01,2013-01-04 20:41:00,
2013-01-04 15:46:00,58.2,58.2,30.20,NNE,28,3.4,5.1,100,0.01,,---,0.42,VWS V14.01,2013-01-04 20:46:00,
2013-01-04 15:51:00,58.3,58.3,30.20,North,7,3.2,5.7,100,0.01,,---,0.42,VWS V14.01,2013-01-04 20:51:00,
2013-01-04 15:56:00,58.6,58.6,30.20,North,6,4.2,5.0,100,0.01,,---,0.42,VWS V14.01,2013-01-04 20:56:00,
2013-01-04 16:01:00,57.8,57.8,30.20,North,10,2.9,6.2,100,0.01,,---,0.42,VWS V14.01,2013-01-04 21:01:00,
2013-01-04 16:06:00,58.4,58.4,30.20,North,10,2.4,2.4,100,0.00,,---,0.42,VWS V14.01,2013-01-04 21:06:00,
2013-01-04 16:11:00,57.9,57.9,30.20,North,0,3.6,4.5,100,0.00,,---,0.42,VWS V14.01,2013-01-04 21:11:00,
2013-01-04 16:16:00,58.5,58.5,30.20,North,11,4.5,5.4,100,0.00,,---,0.42,VWS V14.01,2013-01-04 21:16:00,
2013-01-04 16:21:00,57.9,57.9,30.20,NNW,343,1.1,2.7,100,0.00,,---,0.42,VWS V14.01,2013-01-04 21:21:00,
2013-01-04 16:26:00,57.7,57.7,30.20,North,7,1.2,1.6,100,0.00,,---,0.42,VWS V14.01,2013-01-04 21:26:00,
2013-01-04 16:31:00,58.5,58.5,30.21,NNW,343,4.2,5.6,100,0.00,,---,0.42,VWS V14.01,2013-01-04 21:31:00,
2013-01-04 16:36:00,58.6,58.6,30.21,NNW,340,6.9,6.9,100,0.01,,---,0.43,VWS V14.01,2013-01-04 21:36:00,
2013-01-04 16:41:00,58.4,58.4,30.22,NNW,342,6.8,7.5,100,0.01,,---,0.43,VWS V14.01,2013-01-04 21:41:00,
2013-01-04 16:46:00,58.4,58.4,30.21,NNW,342,2.5,4.3,100,0.01,,---,0.43,VWS V14.01,2013-01-04 21:46:00,
2013-01-04 16:51:00,58.3,58.3,30.22,NW,322,0.0,2.4,100,0.01,,---,0.43,VWS V14.01,2013-01-04 21:51:00,
2013-01-04 16:56:00,58.1,58.1,30.22,NNW,345,6.7,7.8,100,0.01,,---,0.43,VWS V14.01,2013-01-04 21:56:00,
2013-01-04 17:01:00,58.5,58.5,30.22,North,359,6.2,7.6,100,0.02,,---,0.44,VWS V14.01,2013-01-04 22:01:00,
2013-01-04 17:06:00,58.3,58.3,30.22,North,354,3.2,4.8,100,0.02,,---,0.44,VWS V14.01,2013-01-04 22:06:00,
2013-01-04 17:11:00,58.9,58.9,30.23,NNE,14,5.2,6.0,100,0.02,,---,0.44,VWS V14.01,2013-01-04 22:11:00,
2013-01-04 17:16:00,58.4,58.4,30.23,North,352,3.9,4.2,100,0.02,,---,0.44,VWS V14.01,2013-01-04 22:16:00,
2013-01-04 17:21:00,58.8,58.8,30.23,NNW,335,5.1,5.2,100,0.02,,---,0.44,VWS V14.01,2013-01-04 22:21:00,
2013-01-04 17:26:00,58.4,58.4,30.23,NW,322,1.1,3.0,100,0.03,,---,0.45,VWS V14.01,2013-01-04 22:26:00,
2013-01-04 17:31:00,58.8,58.8,30.24,NNW,335,1.1,5.0,100,0.03,,---,0.45,VWS V14.01,2013-01-04 22:31:00,
2013-01-04 17:36:00,58.4,58.4,30.23,NNW,347,4.5,5.1,100,0.02,,---,0.45,VWS V14.01,2013-01-04 22:36:00,
2013-01-04 17:41:00,58.9,58.9,30.24,NNW,347,4.4,6.6,100,0.02,,---,0.45,VWS V14.01,2013-01-04 22:41:00,
2013-01-04 17:46:00,58.7,58.7,30.24,NNW,347,3.9,6.4,100,0.02,,---,0.45,VWS V14.01,2013-01-04 22:46:00,
2013-01-04 17:51:00,58.7,58.7,30.24,NNW,340,5.2,7.0,100,0.02,,---,0.45,VWS V14.01,2013-01-04 22:51:00,
2013-01-04 17:56:00,58.2,58.2,30.24,NNW,333,5.1,5.5,100,0.03,,---,0.46,VWS V14.01,2013-01-04 22:56:00,
2013-01-04 18:01:00,58.6,58.6,30.24,NNW,347,6.1,7.6,100,0.02,,---,0.46,VWS V14.01,2013-01-04 23:01:00,
2013-01-04 18:06:00,57.8,57.8,30.24,NNW,346,4.2,6.8,100,0.02,,---,0.46,VWS V14.01,2013-01-04 23:06:00,
2013-01-04 18:11:00,58.5,58.5,30.25,NNW,347,6.0,6.3,100,0.02,,---,0.46,VWS V14.01,2013-01-04 23:11:00,
2013-01-04 18:16:00,58.6,58.6,30.25,North,350,3.7,4.3,100,0.02,,---,0.46,VWS V14.01,2013-01-04 23:16:00,
2013-01-04 18:21:00,58.4,58.4,30.25,North,354,3.4,4.1,100,0.02,,---,0.46,VWS V14.01,2013-01-04 23:21:00,
2013-01-04 18:26:00,58.4,58.4,30.25,NNW,342,4.7,6.0,100,0.01,,---,0.46,VWS V14.01,2013-01-04 23:26:00,
2013-01-04 18:32:00,57.6,57.6,30.25,NNW,345,6.0,6.5,100,0.01,,---,0.46,VWS V14.01,2013-01-04 23:32:00,
2013-01-04 18:36:00,58.3,58.3,30.26,NNW,335,1.1,3.9,100,0.01,,---,0.46,VWS V14.01,2013-01-04 23:36:00,
2013-01-04 18:41:00,58.0,58.0,30.26,North,356,4.3,4.5,100,0.01,,---,0.46,VWS V14.01,2013-01-04 23:41:00,
2013-01-04 18:46:00,58.7,58.7,30.26,North,359,3.1,3.5,100,0.01,,---,0.46,VWS V14.01,2013-01-04 23:46:00,
2013-01-04 18:51:00,58.4,58.4,30.26,NNW,339,4.8,6.6,100,0.01,,---,0.46,VWS V14.01,2013-01-04 23:51:00,
2013-01-04 18:56:00,57.8,57.8,30.26,North,352,4.0,6.2,100,0.00,,---,0.46,VWS V14.01,2013-01-04 23:56:00,
2013-01-04 19:01:00,58.1,58.1,30.26,North,350,3.1,3.1,100,0.00,,---,0.46,VWS V14.01,2013-01-05 00:01:00,
2013-01-04 19:06:00,58.4,58.4,30.26,North,353,2.9,4.3,100,0.00,,---,0.46,VWS V14.01,2013-01-05 00:06:00,
2013-01-04 19:11:00,58.5,58.5,30.26,NNW,342,6.6,8.0,100,0.00,,---,0.46,VWS V14.01,2013-01-05 00:11:00,
2013-01-04 19:16:00,57.8,57.8,30.26,North,8,3.4,5.7,100,0.00,,---,0.46,VWS V14.01,2013-01-05 00:16:00,
2013-01-04 19:21:00,58.3,58.3,30.26,NNW,336,4.8,4.8,100,0.00,,---,0.46,VWS V14.01,2013-01-05 00:21:00,
2013-01-04 19:26:00,57.8,57.8,30.26,NNW,345,1.6,2.6,100,0.00,,---,0.46,VWS V14.01,2013-01-05 00:26:00,
2013-01-04 19:31:00,58.1,58.1,30.27,NNW,329,1.6,3.8,100,0.00,,---,0.46,VWS V14.01,2013-01-05 00:31:00,
2013-01-04 19:36:00,58.0,58.0,30.27,NNW,343,3.2,3.2,100,0.00,,---,0.46,VWS V14.01,2013-01-05 00:36:00,
2013-01-04 19:41:00,58.3,58.3,30.27,NNW,346,5.2,6.0,100,0.00,,---,0.46,VWS V14.01,2013-01-05 00:41:00,
2013-01-04 19:46:00,58.3,58.3,30.27,North,0,2.7,5.8,100,0.00,,---,0.46,VWS V14.01,2013-01-05 00:46:00,
2013-01-04 19:52:00,58.4,58.4,30.27,NNW,338,2.1,3.2,100,0.00,,---,0.46,VWS V14.01,2013-01-05 00:52:00,
2013-01-04 19:56:00,58.6,58.6,30.27,NW,322,0.6,2.9,100,0.00,,---,0.46,VWS V14.01,2013-01-05 00:56:00,
2013-01-04 20:01:00,58.8,58.8,30.28,NNW,340,2.9,3.6,100,0.00,,---,0.46,VWS V14.01,2013-01-05 01:01:00,
2013-01-04 20:06:00,58.8,58.8,30.28,NW,311,0.0,2.3,100,0.00,,---,0.46,VWS V14.01,2013-01-05 01:06:00,
2013-01-04 20:11:00,58.3,58.3,30.28,NNE,21,0.0,2.9,100,0.00,,---,0.46,VWS V14.01,2013-01-05 01:11:00,
2013-01-04 20:16:00,58.3,58.3,30.28,North,0,0.0,0.0,100,0.00,,---,0.46,VWS V14.01,2013-01-05 01:16:00,
2013-01-04 20:21:00,58.8,58.8,30.28,North,0,0.0,0.0,100,0.00,,---,0.46,VWS V14.01,2013-01-05 01:21:00,
2013-01-04 20:26:00,58.8,58.8,30.28,North,350,2.6,2.6,100,0.00,,---,0.46,VWS V14.01,2013-01-05 01:26:00,
2013-01-04 20:31:00,58.7,58.7,30.29,North,356,2.7,2.7,100,0.00,,---,0.46,VWS V14.01,2013-01-05 01:31:00,
2013-01-04 20:36:00,58.2,58.2,30.29,North,6,6.3,8.6,100,0.00,,---,0.46,VWS V14.01,2013-01-05 01:36:00,
2013-01-04 20:41:00,57.9,57.9,30.28,North,1,2.5,4.1,100,0.00,,---,0.46,VWS V14.01,2013-01-05 01:41:00,
2013-01-04 20:46:00,58.4,58.4,30.29,NNE,18,2.2,5.2,100,0.00,,---,0.46,VWS V14.01,2013-01-05 01:46:00,
2013-01-04 20:51:00,58.4,58.4,30.29,North,1,2.4,6.8,100,0.00,,---,0.46,VWS V14.01,2013-01-05 01:51:00,
2013-01-04 20:56:00,58.3,58.3,30.29,North,7,2.9,5.8,100,0.00,,---,0.46,VWS V14.01,2013-01-05 01:56:00,
2013-01-04 21:01:00,58.3,58.3,30.29,NNE,15,4.3,5.4,100,0.00,,---,0.46,VWS V14.01,2013-01-05 02:01:00,
2013-01-04 21:06:00,58.2,58.2,30.29,NNE,32,3.9,5.2,100,0.00,,---,0.46,VWS V14.01,2013-01-05 02:06:00,
2013-01-04 21:11:00,58.2,58.2,30.29,NNW,346,2.2,5.5,100,0.00,,---,0.46,VWS V14.01,2013-01-05 02:11:00,
2013-01-04 21:16:00,58.1,58.1,30.28,ENE,75,1.9,4.2,100,0.00,,---,0.46,VWS V14.01,2013-01-05 02:16:00,
2013-01-04 21:21:00,57.7,57.7,30.28,NNE,22,5.5,5.5,100,0.00,,---,0.46,VWS V14.01,2013-01-05 02:21:00,
2013-01-04 21:26:00,57.8,57.8,30.28,NNE,18,0.9,3.9,100,0.00,,---,0.46,VWS V14.01,2013-01-05 02:26:00,
2013-01-04 21:31:00,57.4,57.4,30.28,NNE,20,3.2,3.3,100,0.00,,---,0.46,VWS V14.01,2013-01-05 02:31:00,
2013-01-04 21:36:00,57.2,57.2,30.28,NNE,22,0.0,0.0,100,0.00,,---,0.46,VWS V14.01,2013-01-05 02:36:00,
2013-01-04 21:41:00,57.2,57.2,30.29,NNE,15,1.7,3.7,100,0.00,,---,0.46,VWS V14.01,2013-01-05 02:41:00,
2013-01-04 21:46:00,56.7,56.7,30.28,North,10,0.4,1.2,100,0.00,,---,0.46,VWS V14.01,2013-01-05 02:46:00,
2013-01-04 21:51:00,57.4,57.4,30.28,NNE,18,2.5,2.9,100,0.00,,---,0.46,VWS V14.01,2013-01-05 02:51:00,
2013-01-04 21:56:00,57.2,57.2,30.28,North,8,2.1,4.0,100,0.00,,---,0.46,VWS V14.01,2013-01-05 02:56:00,
2013-01-04 22:01:00,57.1,57.1,30.28,NNW,347,0.7,2.1,100,0.00,,---,0.46,VWS V14.01,2013-01-05 03:01:00,
2013-01-04 22:06:00,57.2,57.2,30.28,North,11,0.7,3.9,100,0.00,,---,0.46,VWS V14.01,2013-01-05 03:06:00,
2013-01-04 22:11:00,57.3,57.3,30.28,NNE,17,0.0,0.9,100,0.00,,---,0.46,VWS V14.01,2013-01-05 03:11:00,
2013-01-04 22:16:00,57.0,57.0,30.28,North,7,0.0,1.1,100,0.00,,---,0.46,VWS V14.01,2013-01-05 03:16:00,
2013-01-04 22:21:00,56.9,56.9,30.28,North,10,0.0,0.0,100,0.00,,---,0.46,VWS V14.01,2013-01-05 03:21:00,
2013-01-04 22:26:00,56.9,56.9,30.27,NNE,14,3.5,4.8,100,0.00,,---,0.46,VWS V14.01,2013-01-05 03:26:00,
2013-01-04 22:31:00,56.3,56.3,30.27,NNE,13,5.1,5.1,100,0.00,,---,0.46,VWS V14.01,2013-01-05 03:31:00,
2013-01-04 22:36:00,56.0,56.0,30.27,NNE,15,0.0,0.8,100,0.00,,---,0.46,VWS V14.01,2013-01-05 03:36:00,
2013-01-04 22:41:00,56.3,56.3,30.27,NNE,31,0.0,0.0,100,0.00,,---,0.46,VWS V14.01,2013-01-05 03:41:00,
2013-01-04 22:46:00,56.4,56.4,30.28,NE,45,0.9,0.9,100,0.00,,---,0.46,VWS V14.01,2013-01-05 03:46:00,
2013-01-04 22:51:00,56.7,56.7,30.27,NE,38,0.0,0.0,100,0.00,,---,0.46,VWS V14.01,2013-01-05 03:51:00,
2013-01-04 22:56:00,56.3,56.3,30.28,NE,53,5.7,5.7,100,0.00,,---,0.46,VWS V14.01,2013-01-05 03:56:00,
2013-01-04 23:01:00,56.7,56.7,30.28,NNE,18,5.0,7.8,100,0.00,,---,0.46,VWS V14.01,2013-01-05 04:01:00,
2013-01-04 23:06:00,56.4,56.4,30.28,North,10,4.8,5.9,100,0.00,,---,0.46,VWS V14.01,2013-01-05 04:06:00,
2013-01-04 23:11:00,56.2,56.2,30.28,NNE,15,1.7,4.3,100,0.00,,---,0.46,VWS V14.01,2013-01-05 04:11:00,
2013-01-04 23:16:00,56.7,56.7,30.28,North,10,2.8,3.1,100,0.00,,---,0.46,VWS V14.01,2013-01-05 04:16:00,
2013-01-04 23:21:00,56.3,56.3,30.28,NNE,18,5.0,9.1,100,0.00,,---,0.46,VWS V14.01,2013-01-05 04:21:00,
2013-01-04 23:26:00,55.8,55.8,30.28,NNE,21,4.4,5.0,100,0.00,,---,0.46,VWS V14.01,2013-01-05 04:26:00,
2013-01-04 23:31:00,56.4,56.4,30.28,NNE,32,1.5,5.3,100,0.00,,---,0.46,VWS V14.01,2013-01-05 04:31:00,
2013-01-04 23:36:00,56.3,56.3,30.28,NNE,31,0.0,0.9,100,0.00,,---,0.46,VWS V14.01,2013-01-05 04:36:00,
2013-01-04 23:41:00,55.7,55.7,30.28,North,8,0.9,3.0,100,0.00,,---,0.46,VWS V14.01,2013-01-05 04:41:00,
2013-01-04 23:46:00,55.7,55.7,30.28,North,353,3.1,4.3,100,0.00,,---,0.46,VWS V14.01,2013-01-05 04:46:00,
2013-01-04 23:51:00,56.1,56.1,30.28,NNE,18,7.1,9.1,100,0.00,,---,0.46,VWS V14.01,2013-01-05 04:51:00,
2013-01-04 23:56:00,55.7,55.7,30.28,North,6,4.6,8.1,100,0.00,,---,0.46,VWS V14.01,2013-01-05 04:56:00,